Showing default

MESON-1, 59131

Orbit data source: Space-Track

MESON-1, 59131 is a payload satellite owned by Atomos (US) in SSO that was launched on Mon, 04 Mar 2024 UTC via an FALCON 9 launch vehicle from the Air Force Western Test Range (AFWTR). Payload-class satellites include a variety of spacecraft equipped with specific instruments for various scientific and technological missions. These include communications satellites like Starlink; space stations such as the ISS; scientific satellites like the Hubble; Earth observation satellites from companies like Planet Labs, Umbra, and HawkEye 360; GPS; miniature CubeSats for education and research; and military/defense satellites.

Loading next visibility...
Identifier
59131, 2024-043AK
Orbit
SSO
Country
Flag of USUS
Related business
Manufacturer
Atomos
Mission
Operational Commercial Technology
Bus & Motor
ATOMOS, Unknown motor
Mass
~100 kg wet, ~100 kg dry
Launch date (UTC)
2024-03-04 (2 years ago)
Launch vehicle
FALCON 9
Launch site
Air Force Western Test Range (AFWTR)
Object type
Payload
Rocket body
Debris
Shape & HBR
Box + 2 Pan, 0.5 m
Radar Cross Section
1.000 m², Medium (>0.1 m² and < 1m²)

Expand to show TLE details & history
Last TLE update: 15 hours ago

TLE from 15 hours ago
0 MESON-1
1 59131U 24043AK  25300.89699120  .00008570  00000-0  32017-3 0  9992
2 59131  97.5358  70.5511 0010522 348.5469  11.5529 15.27566919 91572
Epoch: 2025-10-27T21:31Z
TLE epoch observation values (Epoch: 2025-10-27T21:31:40.039Z)
Latitude
-0.00002°
Longitude
71.14202°
Altitude
479.111 km
Speed
7.63 km/s
True Right ascension
04h 42m 12s
True Declination
0° 00' 00"
Sunlit
Object was in full shadow at epoch
Visualization orbit readout
Latitude
Unknown
Longitude
Unknown
Altitude
Unknown
Speed
Unknown
Apparent Right ascension
Unknown
Apparent Declination
Unknown
Sunlit
N/A
Visualization observer readout
Local Sidereal Time
08:10:05
Azimuth
Unknown
Elevation
Unknown
Doppler factor
Unknown
Orbital elements
Apogee altitude
487.266 km
Perigee altitude
472.833 km
Semi-major axis
6,858.187 km
Eccentricity
0.00105
Inclination
97.5358°
RAAN
70.5511°
Arg. of periapsis
348.5469°
True anomaly
11.57708°
Mean anomaly
11.5529°
Eccentric anomaly
11.56499°
Mean motion
3.82146 °/min
Orbital period
94.2 mins
BSTAR
0.00032017
Loading maneuver chart data...
Computing Atmospheric mass density...
Loading historical data...
Loading historical data...
Loading historical data...
Loading historical data...
Loading historical data...
Loading historical data...
Loading historical data...

Documentation

Showing up to 5 results
|